This demonstration page uses our WeatherBlox Daily Observations layout. Learn more.

Left ArrowRight Arrow

31.84235, -102.49876

Hourly Observations for May 6, 2017

Temp ( °F °C ) Dew Point ( °F °C ) Humidity (%) Winds ( mph kmh ) Pressure ( in mb ) Visibility ( mi km ) Precip ( " mm )
12:53 am 00:53 Clear 69 20.6 31 -0.6 24 24 S 10 17 29.86 1011 10 16 0.00 0.00
1:53 am 01:53 Clear 66 18.9 32 0 28 28 S 9 15 29.87 1012 10 16 0.00 0.00
2:53 am 02:53 Clear 63 17.2 33 0.6 33 33 SSE 8 13 29.86 1011 10 16 0.00 0.00
3:53 am 03:53 Clear 60 15.6 34 1.1 38 38 ESE 8 13 29.85 1011 10 16 0.00 0.00
4:53 am 04:53 Clear 58 14.4 34 1.1 41 41 SSE 7 11 29.85 1011 10 16 0.00 0.00
5:53 am 05:53 Clear 59 15 34 1.1 39 39 SSE 8 13 29.85 1011 10 16 0.00 0.00
6:53 am 06:53 Clear 61 16.1 35 1.7 38 38 SSE 10 17 29.84 1011 10 16 0.00 0.00
7:53 am 07:53 Sunny 63 17.2 35 1.7 35 35 SSE 14 22 29.87 1011 10 16 0.00 0.00
8:53 am 08:53 Sunny 67 19.4 36 2.2 32 32 S 16 26 29.88 1012 10 16 0.00 0.00
9:53 am 09:53 Sunny 73 22.8 36 2.2 26 26 S 20 31 29.88 1012 10 16 0.00 0.00
10:53 am 10:53 Sunny 78 25.6 36 2.2 22 22 S 16 26 29.87 1012 10 16 0.00 0.00
11:53 am 11:53 Sunny 83 28.3 35 1.7 18 18 SSE 16 26 29.86 1011 10 16 0.00 0.00
12:53 pm 12:53 Sunny 86 30 33 0.6 15 15 SSE 17 28 29.84 1011 10 16 0.00 0.00
1:53 pm 13:53 Sunny 89 31.7 30 -1.1 12 12 S 21 33 29.82 1010 10 16 0.00 0.00
2:53 pm 14:53 Sunny 90 32.2 30 -1.1 12 12 S 20 31 29.79 1009 10 16 0.00 0.00
3:53 pm 15:53 Sunny 90 32.2 29 -1.7 11 11 SSE 17 28 29.78 1008 10 16 0.00 0.00
4:53 pm 16:53 Sunny 91 32.8 30 -1.1 11 11 S 17 28 29.75 1008 10 16 0.00 0.00
5:53 pm 17:53 Sunny 89 31.7 29 -1.7 11 11 SE 20 31 29.74 1007 10 16 0.00 0.00
6:53 pm 18:53 Sunny 89 31.7 30 -1.1 12 12 S 20 31 29.73 1007 10 16 0.00 0.00
7:53 pm 19:53 Sunny 86 30 30 -1.1 13 13 SSE 15 24 29.73 1007 10 16 0.00 0.00
8:53 pm 20:53 Clear 82 27.8 33 0.6 17 17 SSE 14 22 29.75 1007 10 16 0.00 0.00
9:53 pm 21:53 Clear 79 26.1 36 2.2 21 21 SSE 20 31 29.75 1008 10 16 0.00 0.00
10:53 pm 22:53 Clear 77 25 40 4.4 26 26 SSE 17 28 29.77 1008 10 16 0.00 0.00
11:53 pm 23:53 Clear 75 23.9 42 5.6 31 31 S 16 26 29.77 1008 10 16 0.00 0.00

Powered by AerisWeather